Duluth, MN

2:04 AM CDT on June 23, 2017 (GMT -0500)
Duluth International

Weather History for KDLH - October, 2013

Change the Weather History Date:

Monday, October 21, 2013

  Actual Average Record
Temperature  
Mean Temperature 33 °F 41 °F  
Max Temperature 35 °F 49 °F 80 °F (1901)
Min Temperature 30 °F 33 °F 14 °F (1913)
Degree Days  
Heating Degree Days 32 24  
Month to date heating degree days 317 417  
Since 1 July heating degree days 559 864  
Cooling Degree Days 0 0  
Month to date cooling degree days 0 0  
Year to date cooling degree days 375 204  
Moisture  
Dew Point 26 °F    
Average Humidity 79    
Maximum Humidity 89    
Minimum Humidity 69    
Precipitation  
Precipitation 0.02 in 0.09 in 1.09 in (1949)
Month to date precipitation 3.72 2.08  
Year to date precipitation 26.57 26.89  
Snow  
Snow 0.20 in 0.10 in 4.20 in (1995)
Month to date snowfall 0.2 1.0  
Since 1 July snowfall 0.2 1.1  
Since 1 September snowfall 0.2 1.1  
Snow Depth 0.00 in    
Sea Level Pressure  
Sea Level Pressure 29.80 in    
Wind  
Wind Speed 14 mph (WNW)    
Max Wind Speed 22 mph    
Max Gust Speed 31 mph    
Visibility 7 miles    
Events Snow    
T = Trace of Precipitation, MM = Missing Value Source: NWS Daily Summary

Daily Weather History Graph

Daily Weather History Graph

Search for Another Location

Airport or City:

Trip Planner

Search our weather history database for the weather conditions in past years. The results will help you decide how hot, cold, wet, or windy it might be!

Date:

Astronomy

Oct. 21, 2013 Rise Set
Actual Time 7:35 AM CDT 6:10 PM CDT
Civil Twilight 7:04 AM CDT 6:41 PM CDT
Nautical Twilight 6:29 AM CDT 7:16 PM CDT
Astronomical Twilight 5:54 AM CDT 7:51 PM CDT
Moon 7:54 PM CDT (10/21) 10:19 AM CDT (10/21)
Length of Visible Light 11h 36m
Length of Day
10h 34m
Waning Gibbous, 92% of the Moon is Illuminated
Oct 21
Waning Gibbous
Oct 26
Last Quarter
Nov 3
New
Nov 9
First Quarter
Nov 17
Full

Hourly Weather History & Observations

Time (CDT) Temp. Windchill Dew Point Humidity Pressure Visibility Wind Dir Wind Speed Gust Speed Precip Events Conditions
12:16 AM 33.8 °F 24.3 °F 28.4 °F 81% 29.75 in 8.0 mi NW 13.8 mph 21.9 mph 0.00 in Snow Light Snow
12:42 AM 33.8 °F 25.3 °F 28.4 °F 81% 29.76 in 8.0 mi NW 11.5 mph - 0.00 in Snow Light Snow
12:55 AM 34.0 °F 26.0 °F 28.9 °F 82% 29.81 in 9.0 mi NW 10.4 mph 21.9 mph 0.00 in Snow Light Snow
1:08 AM 33.8 °F 24.3 °F 28.4 °F 81% 29.76 in 9.0 mi NW 13.8 mph - 0.00 in Snow Light Snow
1:55 AM 33.1 °F 24.4 °F 27.0 °F 78% 29.82 in 9.0 mi NW 11.5 mph 21.9 mph 0.00 in Snow Light Snow
2:55 AM 32.0 °F 22.1 °F 26.1 °F 79% 29.83 in 10.0 mi NW 13.8 mph 23.0 mph 0.00 in   Overcast
3:15 AM 30.2 °F 19.3 °F 24.8 °F 80% 29.78 in 10.0 mi NW 15.0 mph 20.7 mph N/A   Scattered Clouds
3:55 AM 30.0 °F 19.1 °F 24.1 °F 79% 29.84 in 10.0 mi WNW 15.0 mph 20.7 mph N/A   Partly Cloudy
4:55 AM 30.0 °F 21.7 °F 25.0 °F 82% 29.84 in 9.0 mi WNW 9.2 mph - 0.00 in Snow Light Snow
5:19 AM 30.2 °F 21.9 °F 24.8 °F 80% 29.79 in 9.0 mi WNW 9.2 mph - 0.00 in Snow Light Snow
5:38 AM 30.2 °F 20.8 °F 26.6 °F 86% 29.79 in 9.0 mi WNW 11.5 mph - 0.00 in Snow Light Snow
5:55 AM 30.0 °F 20.5 °F 25.0 °F 82% 29.84 in 9.0 mi WNW 11.5 mph 19.6 mph 0.00 in Snow Light Snow
6:24 AM 30.2 °F 21.3 °F 26.6 °F 86% 29.79 in 9.0 mi West 10.4 mph - 0.00 in Snow Light Snow
6:35 AM 30.2 °F 20.2 °F 26.6 °F 86% 29.79 in 9.0 mi West 12.7 mph - 0.00 in Snow Light Snow
6:55 AM 30.0 °F 20.0 °F 25.0 °F 82% 29.84 in 9.0 mi West 12.7 mph - 0.00 in Snow Light Snow
7:32 AM 30.2 °F 19.8 °F 24.8 °F 80% 29.79 in 9.0 mi WNW 13.8 mph 19.6 mph 0.00 in   Overcast
7:44 AM 30.2 °F 19.8 °F 24.8 °F 80% 29.79 in 10.0 mi WNW 13.8 mph - 0.00 in   Overcast
7:55 AM 30.0 °F 21.1 °F 23.0 °F 75% 29.85 in 10.0 mi WNW 10.4 mph - 0.00 in   Overcast
8:39 AM 30.2 °F 20.2 °F 24.8 °F 80% 29.79 in 10.0 mi West 12.7 mph - N/A   Mostly Cloudy
8:48 AM 30.2 °F 19.8 °F 24.8 °F 80% 29.79 in 10.0 mi West 13.8 mph - N/A   Mostly Cloudy
8:55 AM 30.0 °F 19.1 °F 24.1 °F 79% 29.85 in 10.0 mi West 15.0 mph - N/A   Mostly Cloudy
9:17 AM 30.2 °F 19.3 °F 21.2 °F 69% 29.78 in 10.0 mi West 15.0 mph 21.9 mph N/A   Overcast
9:55 AM 30.9 °F 19.4 °F 21.9 °F 69% 29.84 in 10.0 mi WNW 17.3 mph 26.5 mph N/A   Mostly Cloudy
10:02 AM 30.2 °F 17.8 °F 21.2 °F 69% 29.78 in 10.0 mi WNW 19.6 mph 28.8 mph N/A   Overcast
10:55 AM 30.9 °F 19.4 °F 21.9 °F 69% 29.84 in 10.0 mi WNW 17.3 mph 26.5 mph N/A   Overcast
11:55 AM 32.0 °F 20.5 °F 21.9 °F 66% 29.83 in 6.0 mi West 18.4 mph 25.3 mph 0.00 in Snow Light Snow
12:12 PM 32.0 °F 22.1 °F 23.0 °F 69% 29.78 in 5.0 mi West 13.8 mph 21.9 mph 0.00 in Snow Light Snow
12:36 PM 33.8 °F 24.3 °F 23.0 °F 65% 29.78 in 9.0 mi WNW 13.8 mph 23.0 mph 0.00 in Snow Light Snow
12:43 PM 33.8 °F 22.8 °F 23.0 °F 65% 29.78 in 8.0 mi WNW 18.4 mph 28.8 mph 0.00 in Snow Light Snow
12:55 PM 32.0 °F 22.5 °F 24.1 °F 73% 29.83 in 9.0 mi West 12.7 mph 21.9 mph 0.00 in Snow Light Snow
1:25 PM 33.8 °F 22.2 °F 24.8 °F 70% 29.77 in 1.5 mi West 20.7 mph 26.5 mph 0.00 in Snow Light Snow
1:30 PM 32.0 °F 21.6 °F 24.8 °F 75% 29.77 in 0.8 mi West 15.0 mph 26.5 mph 0.00 in Snow Light Snow
1:55 PM 33.1 °F 24.4 °F 26.1 °F 75% 29.82 in 7.0 mi West 11.5 mph 24.2 mph 0.00 in Snow Light Snow
2:55 PM 33.1 °F 23.0 °F 24.1 °F 70% 29.81 in 10.0 mi WNW 15.0 mph 29.9 mph 0.00 in   Overcast
3:14 PM 33.8 °F 22.5 °F 26.6 °F 75% 29.76 in 1.8 mi West 19.6 mph 27.6 mph 0.00 in Snow Light Snow
3:20 PM 33.8 °F 23.5 °F 26.6 °F 75% 29.76 in 3.0 mi West 16.1 mph 27.6 mph 0.00 in Snow Light Snow
3:47 PM 33.8 °F 22.5 °F 26.6 °F 75% 29.75 in 1.5 mi West 19.6 mph 24.2 mph 0.00 in Snow Light Snow
3:55 PM 33.1 °F 22.6 °F 27.0 °F 78% 29.81 in 1.5 mi West 16.1 mph 24.2 mph 0.00 in Snow Light Snow
4:10 PM 33.8 °F 22.8 °F 26.6 °F 75% 29.75 in 1.5 mi West 18.4 mph 24.2 mph 0.00 in Snow Light Snow
4:18 PM 33.8 °F 23.9 °F 26.6 °F 75% 29.76 in 2.0 mi West 15.0 mph 25.3 mph 0.00 in Snow Light Snow
4:26 PM 33.8 °F 22.8 °F 26.6 °F 75% 29.76 in 1.8 mi West 18.4 mph 25.3 mph 0.00 in Snow Light Snow
4:55 PM 32.0 °F 22.1 °F 28.0 °F 85% 29.82 in 0.8 mi West 13.8 mph 26.5 mph 0.00 in Snow Light Snow
5:02 PM 33.8 °F 23.2 °F 28.4 °F 81% 29.75 in 1.0 mi West 17.3 mph - 0.00 in Snow Light Snow
5:16 PM 33.8 °F 23.9 °F 28.4 °F 81% 29.76 in 1.5 mi West 15.0 mph 23.0 mph 0.00 in Snow Light Snow
5:55 PM 33.1 °F 22.2 °F 28.9 °F 85% 29.82 in 1.0 mi West 17.3 mph 25.3 mph 0.01 in Snow Light Snow
6:05 PM 33.8 °F 24.3 °F 28.4 °F 81% 29.77 in 2.0 mi WNW 13.8 mph 23.0 mph 0.00 in Snow Light Snow
6:16 PM 33.8 °F 23.5 °F 28.4 °F 81% 29.77 in 4.0 mi WNW 16.1 mph - 0.00 in   Haze
6:25 PM 33.8 °F 23.9 °F 28.4 °F 81% 29.77 in 7.0 mi West 15.0 mph 25.3 mph 0.00 in   Overcast
6:36 PM 33.8 °F 22.8 °F 28.4 °F 81% 29.77 in 10.0 mi WNW 18.4 mph 27.6 mph 0.00 in   Overcast
6:55 PM 34.0 °F 23.8 °F 28.9 °F 82% 29.83 in 10.0 mi West 16.1 mph 26.5 mph 0.00 in   Overcast
7:34 PM 33.8 °F 23.2 °F 28.4 °F 81% 29.78 in 10.0 mi WNW 17.3 mph 29.9 mph N/A   Overcast
7:55 PM 34.0 °F 23.0 °F 28.9 °F 82% 29.85 in 8.0 mi WNW 18.4 mph - 0.00 in Snow Light Snow
8:55 PM 34.0 °F 24.6 °F 30.0 °F 85% 29.86 in 3.0 mi WNW 13.8 mph 23.0 mph 0.00 in Snow Light Snow
9:02 PM 33.8 °F 24.3 °F 30.2 °F 87% 29.81 in 2.0 mi WNW 13.8 mph 23.0 mph 0.00 in Snow Light Snow
9:09 PM 33.8 °F 23.5 °F 30.2 °F 87% 29.81 in 3.0 mi WNW 16.1 mph 21.9 mph 0.00 in Snow Light Snow
9:55 PM 35.1 °F 25.5 °F 30.0 °F 82% 29.88 in 7.0 mi WNW 15.0 mph 20.7 mph 0.01 in Snow Light Snow
10:55 PM 35.1 °F 26.4 °F 30.0 °F 82% 29.89 in 9.0 mi NW 12.7 mph 18.4 mph 0.00 in Snow Light Snow
11:55 PM 34.0 °F 26.6 °F 30.0 °F 85% 29.91 in 9.0 mi NW 9.2 mph - 0.00 in   Overcast